Home > Weather > Langfang > Past weeks

Flag for China Past Weather in Langfang, Hebei, China — Yesterday and Last 2 Weeks

Now
82 °F

Clear.


Feels Like: 86 °F
Forecast: 71 / 85 °F
Wind: 3 mph from North

Location: Beijing Airport

Current Time: Jun 30, 2016 at 11:14:36 AM

Latest Report: Jun 30, 2016 at 10:30 AM


Visibility: 5 mi

Pressure: 29.65 "Hg

Humidity: 66%

Dew Point: 70 °F

Location of LangfangLocation

Past Weather in Langfang — Graph

°F

Langfang Temperature Yesterday

Maximum temperature yesterday: 84 °F (at 2:30 PM)
Minimum temperature yesterday: 70 °F (at 12:00 AM)
Average temperature yesterday: 76 °F

High & Low Weather Summary for the Past Weeks

 TemperatureHumidityPressure
High99 °F (Jun 25, 2:00 PM)100% (Jun 24, 4:30 AM)29.80 "Hg (Jun 24, 4:30 AM)
Low63 °F (Jun 16, 4:30 AM)15% (Jun 26, 3:00 PM)29.36 "Hg (Jun 16, 5:30 PM)
Average79 °F60%29.62 "Hg
* Reported Jun 15 9:00 AM — Jun 30 9:30 AM, Langfang, Weather by CustomWeather, © 2016

Note: Actual official high and low records may vary slightly from our data, if they occured in-between our weather recording intervals... More about our weather records

Advertising

Langfang Weather History for the Previous 24 Hours

Scroll right to see more
 ConditionsComfort  
Time TempWeatherWind HumidityBarometerVisibility
9:30 AM
Thu, Jun 30
79 °FClear.1 mph70%29.65 "Hg5 mi
9:00 AM77 °FSunny.1 mph74%29.65 "Hg10 mi
8:30 AM75 °FPassing clouds.6 mph78%29.65 "HgN/A
8:00 AM73 °FPassing clouds.6 mph83%29.65 "HgN/A
7:30 AM70 °FSunny.6 mph88%29.65 "Hg10 mi
7:00 AM70 °FPassing clouds.8 mph88%29.65 "HgN/A
6:30 AM70 °FPassing clouds.3 mph88%29.65 "HgN/A
6:00 AM70 °FThunderstorms. Passing clouds.10 mph83%29.65 "HgN/A
5:30 AM70 °FThunderstorms. Passing clouds.1 mph83%29.65 "HgN/A
5:00 AM70 °FPassing clouds.8 mph78%29.68 "HgN/A
4:30 AM70 °FClear.1 mph78%29.65 "Hg10 mi
4:00 AM68 °FClear.3 mph83%29.65 "Hg10 mi
3:30 AM70 °FClear.3 mph78%29.65 "Hg10 mi
3:00 AM70 °FClear.8 mph78%29.68 "Hg10 mi
2:30 AM70 °FClear.3 mph78%29.65 "Hg10 mi
2:00 AM70 °FClear.6 mph78%29.68 "Hg10 mi
1:30 AM70 °FClear.6 mph78%29.68 "Hg10 mi
1:00 AM70 °FClear.3 mph83%29.65 "Hg10 mi
12:30 AM70 °FClear.3 mph83%29.68 "Hg10 mi
12:00 AM70 °FClear.1 mph83%29.65 "Hg10 mi
11:30 PM
Wed, Jun 29
72 °FClear.1 mph78%29.68 "Hg10 mi
11:00 PM72 °FClear.3 mph78%29.68 "Hg10 mi
10:30 PM73 °FPassing clouds.3 mph74%29.65 "HgN/A
10:00 PM73 °FClear.3 mph78%29.65 "Hg5 mi
9:30 PM73 °FClear.3 mph83%29.65 "Hg4 mi
9:00 PM75 °FHaze.6 mph83%29.65 "Hg2 mi
8:30 PM73 °FHaze.3 mph89%29.65 "Hg2 mi
8:00 PM77 °FHaze.3 mph79%29.65 "Hg2 mi
7:30 PM77 °FHaze.3 mph79%29.62 "Hg2 mi
7:00 PM79 °FHaze.6 mph70%29.62 "Hg2 mi
6:30 PM82 °FHaze.10 mph62%29.65 "Hg3 mi
6:00 PM82 °FThunderstorms. Haze.6 mph62%29.65 "Hg3 mi
5:30 PM82 °FHaze.6 mph66%29.62 "Hg3 mi
5:00 PM81 °FHaze.1 mph66%29.62 "Hg3 mi
4:30 PM81 °FHaze.3 mph66%29.62 "Hg3 mi
4:00 PM82 °FPassing clouds.3 mph58%29.62 "Hg4 mi
3:30 PM82 °FClear.3 mph58%29.62 "Hg4 mi
3:00 PM84 °FScattered clouds.6 mph58%29.62 "Hg4 mi
2:30 PM84 °FScattered clouds.8 mph58%29.62 "Hg3 mi
2:00 PM82 °FScattered clouds.8 mph58%29.62 "Hg3 mi
1:30 PM82 °FScattered clouds.6 mph62%29.62 "Hg3 mi
1:00 PM82 °FPartly sunny.1 mph58%29.65 "Hg3 mi
12:30 PM81 °FPartly sunny.6 mph62%29.65 "Hg3 mi
12:00 PM81 °FPartly sunny.3 mph62%29.65 "Hg3 mi
11:30 AM81 °FScattered clouds.3 mph66%29.68 "Hg3 mi
11:00 AM79 °FPartly sunny.3 mph70%29.68 "Hg2 mi
Weather by CustomWeather, © 2016

See weather overviewHow to use our weather pages